TimeCDT,TemperatureF,Dew PointF,Humidity,Sea Level PressureIn,VisibilityMPH,Wind Direction,Wind SpeedMPH,Gust SpeedMPH,PrecipitationIn,Events,Conditions,WindDirDegrees,DateUTC
12:15 AM,39.4,28.4,65,30.11,10.0,South,9.2,-,N/A,,Clear,180,2013-03-29 05:15:00
12:35 AM,38.3,28.2,67,30.12,10.0,South,6.9,-,N/A,,Clear,170,2013-03-29 05:35:00
12:55 AM,36.9,27.3,68,30.12,10.0,SSE,6.9,-,N/A,,Clear,160,2013-03-29 05:55:00
1:15 AM,36.7,27.5,69,30.12,10.0,South,6.9,-,N/A,,Clear,170,2013-03-29 06:15:00
1:35 AM,36.7,27.9,70,30.12,10.0,South,9.2,-,N/A,,Clear,180,2013-03-29 06:35:00
1:55 AM,36.9,27.5,69,30.12,10.0,South,8.1,-,N/A,,Clear,180,2013-03-29 06:55:00
2:15 AM,37.4,27.9,68,30.12,10.0,South,9.2,-,N/A,,Clear,180,2013-03-29 07:15:00
2:35 AM,37.0,27.5,68,30.11,10.0,South,8.1,-,N/A,,Clear,180,2013-03-29 07:35:00
2:55 AM,36.0,27.5,71,30.11,10.0,South,8.1,-,N/A,,Clear,170,2013-03-29 07:55:00
3:15 AM,35.6,27.3,72,30.11,10.0,South,6.9,-,N/A,,Clear,180,2013-03-29 08:15:00
3:35 AM,34.0,26.6,74,30.11,10.0,South,6.9,-,N/A,,Clear,180,2013-03-29 08:35:00
3:55 AM,34.3,26.8,74,30.10,10.0,South,6.9,-,N/A,,Clear,180,2013-03-29 08:55:00
4:15 AM,33.4,26.6,76,30.10,10.0,South,6.9,-,N/A,,Clear,180,2013-03-29 09:15:00
4:35 AM,33.4,27.1,78,30.10,10.0,South,8.1,-,N/A,,Clear,180,2013-03-29 09:35:00
4:55 AM,33.8,27.1,77,30.09,10.0,South,9.2,-,N/A,,Clear,180,2013-03-29 09:55:00
5:15 AM,33.8,27.1,77,30.09,10.0,South,8.1,-,N/A,,Clear,190,2013-03-29 10:15:00
5:35 AM,32.5,26.4,78,30.09,10.0,South,6.9,-,N/A,,Clear,190,2013-03-29 10:35:00
5:55 AM,32.0,26.1,79,30.09,10.0,South,6.9,-,N/A,,Clear,180,2013-03-29 10:55:00
6:15 AM,32.7,26.6,78,30.09,10.0,South,4.6,-,N/A,,Clear,180,2013-03-29 11:15:00
6:35 AM,32.0,26.4,80,30.09,10.0,SSW,4.6,-,N/A,,Clear,200,2013-03-29 11:35:00
6:55 AM,32.9,26.8,78,30.09,10.0,SSW,6.9,-,N/A,,Clear,200,2013-03-29 11:55:00
7:15 AM,34.9,27.9,76,30.10,10.0,SSW,5.8,-,N/A,,Clear,200,2013-03-29 12:15:00
7:35 AM,34.9,27.5,74,30.10,10.0,SW,3.5,-,N/A,,Clear,220,2013-03-29 12:35:00
7:55 AM,35.6,28.4,75,30.10,10.0,SSW,4.6,-,N/A,,Clear,210,2013-03-29 12:55:00
8:15 AM,36.5,29.3,75,30.10,10.0,SSW,4.6,-,N/A,,Clear,200,2013-03-29 13:15:00
8:35 AM,39.4,30.9,72,30.10,10.0,SSW,5.8,-,N/A,,Clear,200,2013-03-29 13:35:00
8:55 AM,42.6,32.0,66,30.10,10.0,SSW,6.9,-,N/A,,Clear,210,2013-03-29 13:55:00
9:15 AM,46.2,32.7,59,30.10,10.0,SW,6.9,-,N/A,,Clear,220,2013-03-29 14:15:00
9:35 AM,48.7,32.5,54,30.10,10.0,SW,9.2,-,N/A,,Clear,220,2013-03-29 14:35:00
9:55 AM,51.1,33.3,51,30.09,10.0,SW,11.5,-,N/A,,Clear,220,2013-03-29 14:55:00
10:15 AM,54.1,34.3,47,30.09,10.0,SW,10.4,-,N/A,,Clear,220,2013-03-29 15:15:00
10:35 AM,55.9,35.2,46,30.08,10.0,SW,9.2,-,N/A,,Clear,220,2013-03-29 15:35:00
10:55 AM,57.6,35.8,44,30.08,10.0,SW,10.4,-,N/A,,Clear,220,2013-03-29 15:55:00
11:15 AM,59.7,36.5,42,30.08,10.0,SW,10.4,-,N/A,,Clear,220,2013-03-29 16:15:00
11:35 AM,62.6,37.4,39,30.07,10.0,SSW,11.5,-,N/A,,Clear,210,2013-03-29 16:35:00
11:55 AM,63.1,36.9,38,30.06,10.0,SSW,10.4,-,N/A,,Clear,200,2013-03-29 16:55:00
12:15 PM,65.3,36.5,34,30.06,10.0,SSW,11.5,-,N/A,,Clear,200,2013-03-29 17:15:00
12:35 PM,66.4,36.0,33,30.05,10.0,South,10.4,-,N/A,,Clear,180,2013-03-29 17:35:00
12:55 PM,67.1,35.4,31,30.04,10.0,South,13.8,-,N/A,,Clear,180,2013-03-29 17:55:00
1:15 PM,66.2,34.9,31,30.03,10.0,South,16.1,20.7,N/A,,Clear,190,2013-03-29 18:15:00
1:35 PM,69.1,34.3,28,30.03,10.0,South,17.3,-,N/A,,Scattered Clouds,190,2013-03-29 18:35:00
1:55 PM,67.1,34.2,30,30.03,10.0,South,13.8,20.7,N/A,,Mostly Cloudy,190,2013-03-29 18:55:00
2:15 PM,66.2,33.8,30,30.03,10.0,South,17.3,20.7,N/A,,Mostly Cloudy,190,2013-03-29 19:15:00
2:35 PM,66.0,27.3,23,30.02,10.0,West,12.7,21.9,N/A,,Overcast,260,2013-03-29 19:35:00
2:55 PM,67.8,32.4,27,30.01,10.0,South,6.9,-,N/A,,Mostly Cloudy,170,2013-03-29 19:55:00
3:15 PM,68.0,33.3,28,30.00,10.0,SSW,13.8,-,N/A,,Scattered Clouds,200,2013-03-29 20:15:00
3:35 PM,65.8,32.4,29,29.99,10.0,SSW,21.9,25.3,N/A,,Mostly Cloudy,210,2013-03-29 20:35:00
3:55 PM,66.2,30.6,26,29.99,10.0,SSW,11.5,-,N/A,,Mostly Cloudy,210,2013-03-29 20:55:00
4:15 PM,67.6,31.6,26,29.98,10.0,SW,6.9,-,N/A,,Mostly Cloudy,220,2013-03-29 21:15:00
4:35 PM,65.7,32.4,29,29.98,10.0,SSW,8.1,-,N/A,Thunderstorm,Thunderstorm,200,2013-03-29 21:35:00
4:55 PM,62.4,37.4,40,29.99,10.0,WSW,13.8,23.0,N/A,Rain-Thunderstorm,Light Thunderstorms and Rain,240,2013-03-29 21:55:00
5:15 PM,63.0,39.4,42,29.98,10.0,SSW,13.8,17.3,N/A,,Overcast,210,2013-03-29 22:15:00
5:35 PM,62.6,39.9,43,29.96,10.0,SSE,6.9,-,N/A,Rain-Thunderstorm,Light Thunderstorms and Rain,160,2013-03-29 22:35:00
5:55 PM,62.6,39.0,42,29.97,10.0,South,9.2,-,N/A,,Mostly Cloudy,190,2013-03-29 22:55:00
6:15 PM,60.1,41.9,51,29.97,10.0,South,11.5,-,N/A,,Mostly Cloudy,190,2013-03-29 23:15:00
6:35 PM,55.6,45.5,69,29.98,10.0,South,10.4,-,N/A,Rain-Thunderstorm,Light Thunderstorms and Rain,190,2013-03-29 23:35:00
6:55 PM,54.5,46.0,73,30.00,5.0,SSW,25.3,32.2,0.03,Rain-Thunderstorm,Heavy Thunderstorms and Rain,200,2013-03-29 23:55:00
7:15 PM,54.0,46.8,77,29.95,7.0,SSE,15.0,-,0.02,Rain-Thunderstorm,Light Thunderstorms and Rain,150,2013-03-30 00:15:00
7:35 PM,53.6,46.6,77,29.95,10.0,SE,9.2,-,0.02,,Scattered Clouds,140,2013-03-30 00:35:00
7:55 PM,52.9,46.4,79,29.97,10.0,SSE,8.1,-,0.02,Thunderstorm,Thunderstorm,150,2013-03-30 00:55:00
8:15 PM,52.7,45.5,76,29.97,10.0,SE,9.2,-,N/A,,Overcast,130,2013-03-30 01:15:00
8:35 PM,51.8,45.5,79,29.97,10.0,ESE,9.2,-,N/A,Thunderstorm,Overcast,120,2013-03-30 01:35:00
8:55 PM,52.0,45.5,79,29.97,10.0,SE,9.2,-,N/A,,Overcast,140,2013-03-30 01:55:00
9:15 PM,51.8,45.1,78,29.99,10.0,ESE,8.1,-,N/A,,Mostly Cloudy,110,2013-03-30 02:15:00
9:35 PM,50.0,44.8,82,29.98,10.0,ESE,9.2,-,N/A,,Scattered Clouds,110,2013-03-30 02:35:00
9:55 PM,49.1,45.0,86,29.98,10.0,East,9.2,-,N/A,Thunderstorm,Scattered Clouds,100,2013-03-30 02:55:00
10:15 PM,48.0,44.6,88,29.98,10.0,East,5.8,-,N/A,Thunderstorm,Thunderstorm,100,2013-03-30 03:15:00
10:35 PM,46.4,43.9,91,29.99,7.0,East,6.9,-,N/A,,Clear,80,2013-03-30 03:35:00
10:55 PM,47.7,45.7,93,29.98,7.0,ESE,10.4,-,N/A,,Clear,110,2013-03-30 03:55:00
11:15 PM,47.8,45.7,92,29.98,10.0,ESE,10.4,-,N/A,,Clear,120,2013-03-30 04:15:00
11:35 PM,47.8,45.7,92,29.97,10.0,SE,9.2,-,N/A,,Clear,130,2013-03-30 04:35:00
11:55 PM,47.7,45.1,91,29.97,10.0,SSE,8.1,-,N/A,,Clear,150,2013-03-30 04:55:00